Regional Weather Roundup
Issued by NWS

Home | Current Version | Previous Version | Graphics & Text | Print | Product List | Glossary On
Versions: 1 2 3 4 5 6 7 8 9 10 11 12 13 14 15 16 17 18 19 20 21 22 23 24 25 26 27 28 29 30 31 32 33 34 35 36 37 38 39 40 41 42 43 44 45 46 47 48 49 50
882
ASUS44 KLIX 032101
RWRLA
LOUISIANA WEATHER ROUNDUP
NATIONAL WEATHER SERVICE NEW ORLEANS LA
300 PM CST TUE MAR 03 2015

NOTE: "FAIR" INDICATES FEW OR NO CLOUDS BELOW 12,000 FEET WITH NO
      SIGNIFICANT WEATHER AND/OR OBSTRUCTIONS TO VISIBILITY.
      SKY/WX - SKY CONDITION AND SIGNIFICANT WEATHER.
      TMP - AIR TEMPERATURE.    DP   - DEWPOINT TEMPERATURE.
      RH  - RELATIVE HUMIDITY.  PRES - PRESSURE.
      HX  - HEAT INDEX.         WCI  - WIND CHILL INDEX.

*  THESE STATIONS ARE NOT NWS OR FAA STATIONS AND ARE NOT UNDER
   NWS QUALITY CONTROL.

LAZ040-048-061>063-065-066-069-032200-
SOUTHEAST LOUISIANA

CITY           SKY/WX    TMP DP  RH WIND       PRES   REMARKS
N.O. AUDUBON   NOT AVBL
N.O. INTL ARPT CLOUDY    78  66  66 S18G28    30.02F
N.O. LAKEFRONT CLOUDY    79  67  66 SE14      30.02F
SLIDELL        CLOUDY    76  68  76 SE12G22   30.02F
BATON ROUGE    PTSUNNY   78  69  73 S15       29.98F
BOOTHVILLE     SUNNY     77  67  71 SE17G24   30.05F
BELLE CHASSE   PTSUNNY   77  64  64 S20G26    30.02F
BOGALUSA*        N/A     77  65  66 S14G20    30.03F
GALLIANO*      CLOUDY    78  67  66 MISG      30.03F
NEW ROADS*     NOT AVBL
GONZALES*      NOT AVBL
HAMMOND*       NOT AVBL
HOUMA*         PTSUNNY   77  70  78 SE16      30.02F
PORT FOURCHON*   N/A     75  68  78 SE13      30.06F

$$

LAZ041-044-053-054-032200-
SOUTHWEST LOUISIANA

CITY           SKY/WX    TMP DP  RH WIND       PRES   REMARKS
LAKE CHARLES   PTSUNNY   75  67  76 SW14G25   29.96F
LAFAYETTE      MOSUNNY   79  68  69 S15G28    29.97F
PATTERSON      CLOUDY    73  72  94 S13       30.00F
SALT POINT       N/A     70  68  93 S5        29.99F
NEW IBERIA     CLOUDY    76  69  79 S16G25    29.99F
CHENAULT AIRPK NOT AVBL

$$

LAZ027-028-032200-
CENTRAL LOUISIANA

CITY           SKY/WX    TMP DP  RH WIND       PRES   REMARKS
FORT POLK      PTSUNNY   76  65  68 S12       29.92F
ALEXANDRIA INT PTSUNNY   74  66  76 S12       29.94F
ALEXANDRIA     MOSUNNY   77  66  68 SW8       29.95F

$$

LAZ001-002-032200-
NORTHWEST LOUISIANA

CITY           SKY/WX    TMP DP  RH WIND       PRES   REMARKS
SHREVEPORT     CLOUDY    65  61  87 S10       29.92F
BARKSDALE AFB  NOT AVBL
DTN SHREVEPORT CLOUDY    62  57  83 SE8       29.92F

$$

LAZ014-016-032200-
NORTHEAST LOUISIANA

CITY           SKY/WX    TMP DP  RH WIND       PRES   REMARKS
MONROE         CLOUDY    68  63  84 CALM      29.97F
TALLULAH       CLOUDY    76  66  71 S10       29.96F

$$




USA.gov is the U.S. government's official web portal to all federal, state and local government web resources and services.